Back to catalog

COSMOS 1360

AliveMilitaryLEO
NORAD 13163·PAYLOAD·🇷🇺 Russia

Launched May 6, 1982 from Plesetsk Cosmodrome

Loading…

Next Passes (next 24 hours)

TLE

FreshSource: Space-Track

Epoch: Sep 14, 2026, 06:50 UTC

1 13163U 82040D   26257.28505323 -.00000003  00000-0  88125-4 0  9990
2 13163  74.0125 187.0627 0023572 288.2666 227.7814 12.50200650748914

Track COSMOS 1360 in real time with AllMySat

Download on the App Store